User: anonymous   Login
Location: Laverne
(36.7100°N, 99.8930°W)
Time: 16:33:50
(UTC-06:00)
Language:

Iridium 32 - Orbit

View from above orbital plane
View from above orbital plane
View from above satellite
View from above satellite

Ground track
Ground track

The orbit data is extracted from the following two-line orbital elements,

1 24945U 97051B   14328.41541838  .00000192  00000-0  61606-4 0  1007
2 24945 086.3945 318.2591 0002175 106.0790 254.0645 14.34214902900294
Epoch (UTC): 24 November 2014 09:58:12
Eccentricity: 0.0002175
inclination: 86.3945°
perigee height: 776 km
apogee height: 779 km
right ascension of ascending node: 318.2591°
argument of perigee: 106.0790°
revolutions per day: 14.34214902
mean anomaly at epoch: 254.0645°
orbit number at epoch: 90029

The dashed part of the orbit path shows where the satellite is in the earth's shadow,  

DLR